This is the latest recevied weather packets stored in our database for station/object FW0690. If no packets are shown the sender has not sent any weather packets the latest 10 day(s).
| Time | Temp. | Humidity | Pressure | Rain* | Wind** | Luminosity | Snow |
|---|---|---|---|---|---|---|---|
| 1778075802 | 32.78° C | 19% | 1011.9 hPa | - | - | 193 W/m² | - |
| 1778075442 | 31.67° C | 19% | 1011.9 hPa | - | - | 193 W/m² | - |
| 1778075081 | 32.78° C | 19% | 1012 hPa | - | - | 193 W/m² | - |
| 1778074721 | 32.78° C | 19% | 1012 hPa | - | - | 193 W/m² | - |
| 1778074361 | 32.78° C | 19% | 1012 hPa | - | - | 193 W/m² | - |
| 1778074001 | 32.78° C | 19% | 1012 hPa | - | - | 193 W/m² | - |
| 1778073641 | 32.78° C | 19% | 1012 hPa | - | - | 193 W/m² | - |
| 1778073281 | 32.78° C | 19% | 1012 hPa | - | - | 193 W/m² | - |
| 1778072921 | 31.67° C | 19% | 1012 hPa | - | - | 193 W/m² | - |
| 1778072561 | 32.22° C | 19% | 1012.1 hPa | - | - | 193 W/m² | - |
| 1778072201 | 32.78° C | 20% | 1012.2 hPa | - | - | 54 W/m² | - |
| 1778071841 | 32.78° C | 20% | 1012.2 hPa | - | - | 35 W/m² | - |
| 1778071481 | 32.22° C | 20% | 1012.2 hPa | - | - | 32 W/m² | - |
| 1778071122 | 31.11° C | 20% | 1012.2 hPa | - | - | 32 W/m² | - |
| 1778071121 | 31.11° C | 20% | 1012.2 hPa | - | - | 32 W/m² | - |
| 1778070762 | 31.67° C | 20% | 1012.3 hPa | - | - | 30 W/m² | - |
| 1778070761 | 31.67° C | 20% | 1012.3 hPa | - | - | 30 W/m² | - |
| 1778070401 | 31.11° C | 20% | 1012.4 hPa | - | - | 30 W/m² | - |
| 1778070041 | 30.56° C | 20% | 1012.4 hPa | - | - | 31 W/m² | - |
| 1778069681 | 32.22° C | 20% | 1012.5 hPa | - | - | 30 W/m² | - |
| 1778069322 | 32.78° C | 20% | 1012.5 hPa | - | - | 29 W/m² | - |
| 1778069321 | 32.78° C | 20% | 1012.5 hPa | - | - | 29 W/m² | - |
| 1778068961 | 32.22° C | 21% | 1012.6 hPa | - | - | 29 W/m² | - |
| 1778068601 | 31.11° C | 21% | 1012.6 hPa | - | - | 28 W/m² | - |
| 1778068241 | 31.11° C | 21% | 1012.7 hPa | - | - | 28 W/m² | - |
* Rain since midnight (hover to see other rain measurements)
** Current wind speed in m/s (hover to see current wind gust speed)